period_start,C,m1,H,J0,J1,J2,J3,J4,J5,JA,JB,JC,JD,JJ,JK,JN,#
2018-03-03 00:03:22,0.36,6.44,0.00,17.11,19.60,22.97,14.28,51.08,1011.25,2055.01,1732.30,1843.48,2080.40,599.85,604.65,47.50,0000 0000 0000 0000 000000
2018-03-03 00:08:24,0.37,6.46,0.00,17.16,19.63,23.00,14.18,51.18,1011.34,2055.00,1729.34,1841.08,2077.59,599.94,604.74,47.55,0000 0000 0000 0000 000000
2018-03-03 00:13:25,0.34,6.47,0.00,17.21,19.65,23.02,14.21,51.16,1011.59,2055.00,1726.66,1838.73,2074.87,599.81,604.75,47.60,0000 0000 0000 0000 000000
2018-03-03 00:18:27,0.37,6.49,0.00,17.23,19.68,23.06,14.06,51.13,1011.73,2054.99,1723.71,1836.32,2072.11,599.81,604.80,47.65,0000 0000 0000 0000 000000
2018-03-03 00:23:28,0.37,6.51,0.00,17.26,19.70,23.11,14.22,51.13,1011.73,2054.98,1720.77,1833.94,2069.31,600.18,604.99,47.70,0000 0000 0000 0000 000000
2018-03-03 00:28:29,0.34,6.53,0.00,17.30,19.73,23.14,14.04,51.00,1011.74,2054.93,1717.87,1831.58,2066.53,599.73,604.59,47.75,0000 0000 0000 0000 000000
2018-03-03 00:33:31,0.33,6.55,0.00,17.33,19.76,23.16,14.22,51.13,1011.74,2054.66,1714.99,1829.24,2063.88,600.47,605.14,47.80,0000 0000 0000 0000 000000
2018-03-03 00:38:32,0.32,6.56,0.00,17.35,19.79,23.20,14.22,51.14,1011.73,2054.12,1711.97,1826.78,2061.05,599.95,604.66,47.85,0000 0000 0000 0000 000000
2018-03-03 00:43:33,0.37,6.58,0.00,17.38,19.82,23.23,14.18,51.17,1011.74,2054.04,1708.98,1824.36,2058.28,599.78,604.48,47.90,0000 0000 0000 0000 000000
2018-03-03 00:48:35,0.40,6.60,0.00,17.39,19.84,23.24,14.09,51.15,1011.73,2054.01,1705.87,1821.81,2055.35,599.55,604.15,47.95,0000 0000 0000 0000 000000
2018-03-03 00:53:36,0.38,6.62,0.00,17.41,19.87,23.28,14.24,51.11,1011.73,2054.00,1702.77,1819.31,2052.51,600.23,604.82,48.00,0000 0000 0000 0000 000000
2018-03-03 00:58:37,0.40,6.64,0.00,17.42,19.89,23.30,14.21,51.10,1011.73,2054.00,1699.61,1816.80,2049.61,600.25,604.76,48.05,0000 0000 0000 0000 000000
2018-03-03 01:03:38,0.40,6.66,0.00,17.46,19.92,23.32,14.15,51.12,1011.73,2054.00,1696.38,1814.24,2046.75,600.00,604.60,48.10,0000 0000 0000 0000 000000
2018-03-03 01:08:40,0.40,6.68,0.00,17.47,19.95,23.34,14.23,51.23,1011.73,2053.97,1693.10,1811.67,2043.93,600.09,604.53,48.15,0000 0000 0000 0000 000000
2018-03-03 01:13:41,0.41,6.70,0.00,17.49,19.98,23.38,14.22,51.14,1011.66,2053.97,1689.89,1809.07,2040.96,600.02,604.33,48.21,0000 0000 0000 0000 000000
2018-03-03 01:18:42,0.40,6.72,0.00,17.51,20.00,23.40,14.12,51.01,1011.72,2053.86,1686.59,1806.43,2037.92,599.68,603.96,48.26,0000 0000 0000 0000 000000
2018-03-03 01:23:44,0.41,6.74,0.00,17.54,20.03,23.43,14.18,51.34,1011.73,2053.77,1683.32,1803.88,2034.96,600.06,604.42,48.31,0000 0000 0000 0000 000000
2018-03-03 01:28:46,0.34,6.76,0.00,17.57,20.05,23.44,14.12,50.99,1011.70,2053.36,1680.07,1801.24,2031.99,599.81,604.00,48.36,0000 0000 0000 0000 000000
2018-03-03 01:33:47,0.40,6.78,0.00,17.60,20.08,23.48,14.12,50.90,1011.62,2053.04,1676.80,1798.60,2028.96,599.95,604.05,48.41,0000 0000 0000 0000 000000
2018-03-03 01:38:48,0.40,6.80,0.00,17.62,20.10,23.49,14.22,50.97,1011.60,2053.02,1673.64,1796.01,2026.05,599.96,604.23,48.46,0000 0000 0000 0000 000000
2018-03-03 01:43:50,0.39,6.82,0.00,17.65,20.13,23.51,14.21,50.98,1011.37,2053.01,1670.54,1793.52,2023.22,600.14,603.86,48.51,0000 0000 0000 0000 000000
2018-03-03 01:48:51,0.38,6.84,0.00,17.66,20.15,23.53,14.15,51.07,1011.39,2053.00,1667.51,1791.23,2020.43,600.20,603.72,48.56,0000 0000 0000 0000 000000
2018-03-03 01:53:52,0.38,6.86,0.00,17.70,20.18,23.58,14.16,51.09,1011.36,2052.99,1664.53,1788.86,2017.65,600.00,603.75,48.61,0000 0000 0000 0000 000000
2018-03-03 01:58:53,0.36,6.88,0.00,17.73,20.20,23.60,14.11,51.12,1011.56,2052.98,1661.77,1786.61,2015.04,599.87,603.69,48.66,0000 0000 0000 0000 000000
2018-03-03 02:03:54,0.36,6.90,0.00,17.77,20.23,23.63,14.10,51.14,1011.60,2052.97,1658.99,1784.38,2012.41,600.12,603.89,48.71,0000 0000 0000 0000 000000
2018-03-03 02:08:55,0.34,6.92,0.00,17.80,20.25,23.65,14.17,51.15,1011.51,2052.82,1656.20,1782.09,2009.80,599.93,603.66,48.76,0000 0000 0000 0000 000000
2018-03-03 02:13:57,0.31,6.93,0.00,17.82,20.28,23.67,14.08,51.01,1011.39,2052.35,1653.38,1779.84,2007.21,599.85,603.41,48.81,0000 0000 0000 0000 000000
2018-03-03 02:18:58,0.33,6.95,0.00,17.85,20.31,23.70,14.25,51.11,1011.31,2052.07,1650.65,1777.63,2004.61,600.07,603.32,48.86,0000 0000 0000 0000 000000
2018-03-03 02:23:59,0.36,6.97,0.00,17.88,20.33,23.71,14.18,51.10,1011.31,2052.01,1647.92,1775.44,2002.01,600.12,603.36,48.91,0000 0000 0000 0000 000000
2018-03-03 02:29:00,0.36,6.99,0.00,17.90,20.36,23.76,14.16,51.17,1011.32,2052.00,1645.11,1773.21,1999.49,600.11,603.43,48.96,0000 0000 0000 0000 000000
2018-03-03 02:34:02,0.36,7.00,0.00,17.93,20.39,23.79,14.19,51.23,1011.32,2052.00,1642.33,1771.02,1996.95,600.19,603.44,49.01,0000 0000 0000 0000 000000
2018-03-03 02:39:03,0.37,7.02,0.00,17.97,20.42,23.81,14.12,51.16,1011.49,2052.00,1639.59,1768.74,1994.37,599.99,603.35,49.06,0000 0000 0000 0000 000000
2018-03-03 02:44:04,0.38,7.04,0.00,18.02,20.45,23.85,14.09,51.20,1011.56,2051.99,1636.73,1766.50,1991.75,599.66,602.88,49.12,0000 0000 0000 0000 000000
2018-03-03 02:49:06,0.36,7.06,0.00,18.05,20.48,23.87,14.15,51.13,1011.57,2051.96,1633.92,1764.21,1989.12,599.62,602.84,49.17,0000 0000 0000 0000 000000
2018-03-03 02:54:07,0.36,7.08,0.00,18.09,20.51,23.90,14.12,51.17,1011.54,2051.83,1631.10,1762.00,1986.53,599.79,602.85,49.22,0000 0000 0000 0000 000000
2018-03-03 02:59:08,0.29,7.10,0.00,18.13,20.54,23.94,14.09,51.17,1011.56,2051.22,1628.27,1759.71,1983.97,600.06,603.06,49.27,0000 0000 0000 0000 000000
2018-03-03 03:04:10,0.36,7.11,0.00,18.17,20.58,23.97,14.14,51.15,1011.42,2051.03,1625.47,1757.42,1981.50,600.06,602.98,49.32,0000 0000 0000 0000 000000
2018-03-03 03:09:11,0.37,7.13,0.00,18.20,20.60,24.00,14.11,51.30,1011.37,2051.02,1622.64,1755.20,1978.92,599.99,602.67,49.37,0000 0000 0000 0000 000000
2018-03-03 03:14:13,0.39,7.15,0.00,18.23,20.63,24.02,14.19,51.26,1011.57,2051.00,1619.72,1752.86,1976.23,600.36,602.98,49.42,0000 0000 0000 0000 000000
2018-03-03 03:19:14,0.40,7.17,0.00,18.26,20.67,24.05,14.13,51.17,1011.62,2050.99,1616.80,1750.47,1973.50,600.09,602.76,49.47,0000 0000 0000 0000 000000
2018-03-03 03:24:15,0.38,7.19,0.00,18.28,20.70,24.08,14.17,51.09,1011.69,2050.97,1613.88,1748.14,1970.82,600.22,603.00,49.52,0000 0000 0000 0000 000000
2018-03-03 03:29:16,0.39,7.21,0.00,18.31,20.73,24.13,14.12,51.23,1011.73,2050.94,1610.97,1745.80,1968.12,599.97,602.74,49.57,0000 0000 0000 0000 000000
2018-03-03 03:34:17,0.34,7.23,0.00,18.35,20.76,24.16,14.05,51.23,1011.73,2050.56,1608.01,1743.46,1965.34,599.79,602.41,49.62,0000 0000 0000 0000 000000
2018-03-03 03:39:19,0.38,7.25,0.00,18.38,20.79,24.19,14.16,51.21,1011.75,2050.15,1604.95,1741.02,1962.56,600.21,602.76,49.67,0000 0000 0000 0000 000000
2018-03-03 03:44:20,0.38,7.27,0.00,18.42,20.83,24.22,14.14,51.22,1011.76,2050.04,1601.99,1738.59,1959.83,600.15,602.60,49.72,0000 0000 0000 0000 000000
2018-03-03 03:49:21,0.41,7.29,0.00,18.45,20.86,24.26,14.20,51.11,1011.81,2050.01,1599.01,1736.24,1957.07,600.22,602.71,49.77,0000 0000 0000 0000 000000
2018-03-03 03:54:22,0.41,7.31,0.00,18.47,20.89,24.28,14.18,51.08,1011.86,2050.01,1596.15,1733.84,1954.34,599.81,602.20,49.82,0000 0000 0000 0000 000000
2018-03-03 03:59:23,0.41,7.33,0.00,18.51,20.93,24.32,14.14,51.20,1012.11,2050.00,1593.10,1731.44,1951.55,599.86,602.36,49.87,0000 0000 0000 0000 000000
2018-03-03 04:04:24,0.42,7.35,0.00,18.56,20.96,24.34,14.17,51.20,1012.02,2049.99,1590.06,1729.00,1948.69,599.88,602.28,49.92,0000 0000 0000 0000 000000
2018-03-03 04:09:25,0.38,7.37,0.00,18.57,21.00,24.38,14.14,51.23,1011.94,2049.90,1587.21,1726.71,1945.89,600.06,602.34,49.97,0000 0000 0000 0000 000000
2018-03-03 04:14:27,0.34,7.39,0.00,18.61,21.03,24.42,14.21,51.19,1012.13,2049.43,1584.27,1724.42,1943.13,600.16,602.53,50.03,0000 0000 0000 0000 000000
2018-03-03 04:19:28,0.38,7.41,0.00,18.64,21.07,24.44,14.11,51.14,1012.22,2049.09,1581.29,1722.04,1940.39,599.95,602.28,50.08,0000 0000 0000 0000 000000
2018-03-03 04:24:29,0.37,7.43,0.00,18.68,21.10,24.48,14.08,51.27,1012.22,2049.01,1578.46,1719.73,1937.72,600.10,602.43,50.13,0000 0000 0000 0000 000000
2018-03-03 04:29:30,0.39,7.45,0.00,18.69,21.13,24.52,14.18,51.40,1012.23,2049.00,1575.62,1717.43,1935.08,600.37,602.49,50.18,0000 0000 0000 0000 000000
2018-03-03 04:34:32,0.41,7.47,0.00,18.69,21.16,24.56,14.13,51.18,1012.33,2049.00,1572.76,1715.14,1932.40,599.90,602.23,50.23,0000 0000 0000 0000 000000
2018-03-03 04:39:33,0.40,7.49,0.00,18.72,21.19,24.57,14.14,51.09,1012.35,2048.98,1569.77,1712.79,1929.73,600.46,602.77,50.28,0000 0000 0000 0000 000000
2018-03-03 04:44:34,0.42,7.51,0.00,18.76,21.23,24.61,14.13,51.08,1012.41,2048.95,1566.70,1710.41,1927.03,599.91,602.10,50.33,0000 0000 0000 0000 000000
2018-03-03 04:49:35,0.43,7.53,0.00,18.81,21.26,24.63,14.06,51.06,1012.59,2048.94,1563.59,1708.06,1924.33,599.93,602.14,50.38,0000 0000 0000 0000 000000
2018-03-03 04:54:37,0.29,7.55,0.00,18.82,21.29,24.67,14.11,51.06,1012.56,2048.49,1560.84,1705.87,1921.78,599.93,602.05,50.43,0000 0000 0000 0000 000000
2018-03-03 04:59:38,0.36,7.57,0.00,18.88,21.33,24.70,14.07,51.21,1012.42,2048.09,1558.02,1703.62,1919.25,599.80,601.76,50.48,0000 0000 0000 0000 000000
2018-03-03 05:04:39,0.38,7.59,0.00,18.93,21.36,24.74,14.15,51.45,1012.27,2048.01,1555.35,1701.40,1916.66,599.79,601.59,50.53,0000 0000 0000 0000 000000
2018-03-03 05:09:41,0.42,7.61,0.00,18.97,21.39,24.76,14.05,51.27,1012.22,2048.00,1552.48,1699.07,1913.96,599.58,601.19,50.58,0000 0000 0000 0000 000000
2018-03-03 05:14:42,0.40,7.63,0.00,19.00,21.43,24.81,14.12,51.42,1012.19,2047.99,1549.66,1696.76,1911.31,600.10,601.67,50.63,0000 0000 0000 0000 000000
2018-03-03 05:19:43,0.41,7.65,0.00,19.01,21.46,24.83,14.07,51.40,1012.19,2047.95,1546.77,1694.39,1908.59,599.76,601.34,50.68,0000 0000 0000 0000 000000
2018-03-03 05:24:45,0.35,7.67,0.00,19.03,21.49,24.86,14.09,51.42,1012.19,2047.65,1543.95,1692.14,1905.95,599.80,601.23,50.73,0000 0000 0000 0000 000000
2018-03-03 05:29:46,0.34,7.68,0.00,19.04,21.53,24.89,14.08,51.42,1012.21,2047.13,1541.27,1689.93,1903.41,600.06,601.60,50.78,0000 0000 0000 0000 000000
2018-03-03 05:34:48,0.37,7.70,0.00,19.06,21.56,24.92,14.12,51.53,1012.22,2047.03,1538.56,1687.76,1900.94,599.96,601.43,50.83,0000 0000 0000 0000 000000
2018-03-03 05:39:49,0.37,7.72,0.00,19.07,21.59,24.95,14.15,51.41,1012.22,2047.00,1536.02,1685.68,1898.48,600.01,601.40,50.88,0000 0000 0000 0000 000000
2018-03-03 05:44:51,0.35,7.74,0.00,19.09,21.62,24.98,14.16,51.44,1012.23,2047.00,1533.64,1683.64,1896.16,599.98,601.53,50.94,0000 0000 0000 0000 000000
2018-03-03 05:49:52,0.37,7.76,0.00,19.10,21.65,25.02,14.11,51.43,1012.32,2047.00,1531.09,1681.60,1893.77,599.61,600.99,50.99,0000 0000 0000 0000 000000
2018-03-03 05:54:53,0.36,7.78,0.00,19.12,21.68,25.05,14.13,51.31,1012.71,2047.00,1528.49,1679.57,1891.41,600.20,601.78,51.04,0000 0000 0000 0000 000000
2018-03-03 05:59:54,0.36,7.80,0.00,19.13,21.71,25.05,14.16,51.34,1012.79,2047.00,1526.03,1677.58,1889.12,600.21,601.92,51.09,0000 0000 0000 0000 000000
2018-03-03 06:04:56,0.33,7.81,0.00,19.17,21.73,25.09,14.14,51.17,1013.09,2046.98,1523.74,1675.72,1886.99,600.36,602.00,51.14,0000 0000 0000 0000 000000
2018-03-03 06:09:57,0.32,7.83,0.00,19.20,21.76,25.13,14.04,51.17,1013.18,2046.96,1521.48,1673.92,1884.84,599.50,601.23,51.19,0000 0000 0000 0000 000000
2018-03-03 06:14:58,0.26,7.84,0.00,19.22,21.78,25.13,14.11,51.23,1013.20,2046.72,1519.37,1672.23,1882.85,599.58,601.29,51.24,0000 0000 0000 0000 000000
2018-03-03 06:19:59,0.24,7.86,0.00,19.25,21.81,25.15,14.07,51.16,1013.20,2046.23,1517.34,1670.60,1880.88,599.66,601.36,51.29,0000 0000 0000 0000 000000
2018-03-03 06:25:01,0.27,7.87,0.00,19.25,21.83,25.19,14.13,51.13,1013.20,2046.04,1515.38,1668.93,1879.05,600.01,601.69,51.34,0000 0000 0000 0000 000000
2018-03-03 06:30:02,0.29,7.88,0.00,19.27,21.86,25.22,14.13,51.31,1013.19,2046.01,1513.31,1667.35,1877.14,599.63,601.24,51.39,0000 0000 0000 0000 000000
2018-03-03 06:35:03,0.30,7.90,0.00,19.29,21.88,25.24,14.07,51.32,1012.99,2046.00,1511.36,1665.76,1875.30,599.94,601.38,51.44,0000 0000 0000 0000 000000
2018-03-03 06:40:05,0.29,7.91,0.00,19.31,21.91,25.24,14.14,51.39,1012.77,2045.99,1509.34,1664.17,1873.44,599.91,601.18,51.49,0000 0000 0000 0000 000000
2018-03-03 06:45:06,0.29,7.93,0.00,19.32,21.93,25.27,14.10,51.39,1012.78,2045.98,1507.32,1662.62,1871.57,600.31,601.52,51.54,0000 0000 0000 0000 000000
2018-03-03 06:50:08,0.29,7.94,0.00,19.33,21.95,25.28,14.12,51.52,1013.07,2045.94,1505.26,1661.00,1869.66,600.12,601.53,51.59,0000 0000 0000 0000 000000
2018-03-03 06:55:09,0.27,7.96,0.00,19.34,21.97,25.32,14.12,51.52,1013.13,2045.82,1503.40,1659.54,1867.87,600.40,601.87,51.64,0000 0000 0000 0000 000000
2018-03-03 07:00:10,0.23,7.97,0.00,19.35,21.99,25.34,14.16,51.52,1013.20,2045.55,1501.42,1658.01,1866.15,600.24,601.77,51.69,0000 0000 0000 0000 000000
2018-03-03 07:05:12,0.24,7.98,0.00,19.36,22.02,25.35,14.09,51.59,1013.20,2045.22,1499.57,1656.58,1864.50,599.78,601.23,51.74,0000 0000 0000 0000 000000
2018-03-03 07:10:13,0.22,8.00,0.00,19.36,22.04,25.36,14.16,51.62,1013.20,2045.08,1497.88,1655.22,1862.86,600.16,601.59,51.79,0000 0000 0000 0000 000000
2018-03-03 07:15:14,0.25,8.01,0.00,19.37,22.06,25.39,14.10,51.53,1013.20,2045.03,1496.16,1653.78,1861.30,599.49,601.00,51.85,0000 0000 0000 0000 000000
2018-03-03 07:20:15,0.26,8.02,0.00,19.38,22.08,25.42,14.09,51.52,1013.20,2045.01,1494.43,1652.48,1859.73,599.98,601.43,51.90,0000 0000 0000 0000 000000
2018-03-03 07:25:17,0.23,8.04,0.00,19.38,22.09,25.43,14.12,51.64,1013.20,2045.00,1492.73,1651.19,1858.18,600.00,601.40,51.95,0000 0000 0000 0000 000000
2018-03-03 07:30:18,0.24,8.05,0.00,19.37,22.12,25.45,14.07,51.38,1013.22,2045.00,1491.18,1649.89,1856.70,599.92,601.32,52.00,0000 0000 0000 0000 000000
2018-03-03 07:35:19,0.25,8.06,0.00,19.38,22.13,25.46,14.11,51.48,1013.32,2045.00,1489.52,1648.60,1855.29,599.97,601.43,52.05,0000 0000 0000 0000 000000
2018-03-03 07:40:21,0.22,8.07,0.00,19.39,22.14,25.47,14.08,51.46,1013.38,2044.99,1487.90,1647.44,1853.91,599.83,601.29,52.10,0000 0000 0000 0000 000000
2018-03-03 07:45:22,0.22,8.08,0.00,19.38,22.16,25.47,14.21,51.43,1013.63,2044.97,1486.43,1646.13,1852.53,600.30,601.89,52.15,0000 0000 0000 0000 000000
2018-03-03 07:50:23,0.26,8.10,0.00,19.38,22.17,25.50,14.18,51.50,1013.69,2044.98,1484.77,1644.84,1851.03,599.82,601.55,52.20,0000 0000 0000 0000 000000
2018-03-03 07:55:24,0.21,8.11,0.00,19.39,22.19,25.51,14.18,51.29,1013.69,2044.94,1483.26,1643.68,1849.64,600.31,602.04,52.25,0000 0000 0000 0000 000000
2018-03-03 08:00:26,0.17,8.12,0.00,19.39,22.19,25.51,14.12,51.40,1013.69,2044.66,1481.77,1642.48,1848.28,599.75,601.55,52.30,0000 0000 0000 0000 000000
2018-03-03 08:05:27,0.18,8.13,0.00,19.40,22.20,25.54,14.12,51.29,1013.78,2044.30,1480.32,1641.27,1846.82,599.71,601.38,52.35,0000 0000 0000 0000 000000
2018-03-03 08:10:28,0.21,8.14,0.00,19.41,22.22,25.56,14.15,51.26,1013.74,2044.20,1478.76,1640.09,1845.52,600.08,601.71,52.40,0000 0000 0000 0000 000000
2018-03-03 08:15:29,0.21,8.15,0.00,19.41,22.22,25.56,14.11,51.21,1013.82,2044.16,1477.29,1638.92,1844.13,600.15,601.89,52.45,0000 0000 0000 0000 000000
2018-03-03 08:20:31,0.26,8.16,0.00,19.40,22.23,25.54,14.08,51.24,1013.84,2044.09,1475.75,1637.73,1842.73,600.11,601.91,52.50,0000 0000 0000 0000 000000
2018-03-03 08:25:32,0.20,8.17,0.00,19.40,22.24,25.56,14.15,51.33,1014.08,2044.03,1474.34,1636.56,1841.43,600.08,601.94,52.55,0000 0000 0000 0000 000000
2018-03-03 08:30:34,0.21,8.18,0.00,19.41,22.24,25.56,14.25,51.24,1014.17,2044.03,1472.83,1635.39,1840.04,600.34,602.31,52.60,0000 0000 0000 0000 000000
2018-03-03 08:35:35,0.22,8.19,0.00,19.41,22.25,25.56,14.15,51.33,1014.17,2044.01,1471.49,1634.23,1838.63,599.82,601.80,52.65,0000 0000 0000 0000 000000
2018-03-03 08:40:36,0.19,8.20,0.00,19.42,22.25,25.56,14.17,51.28,1014.20,2044.02,1470.04,1633.05,1837.28,600.07,601.96,52.70,0000 0000 0000 0000 000000
2018-03-03 08:45:38,0.23,8.21,0.00,19.42,22.27,25.57,14.23,51.28,1014.23,2044.01,1468.60,1631.89,1835.93,600.51,602.32,52.75,0000 0000 0000 0000 000000
2018-03-03 08:50:39,0.25,8.23,0.00,19.42,22.27,25.58,14.11,51.37,1014.28,2044.01,1467.08,1630.61,1834.56,599.72,601.65,52.80,0000 0000 0000 0000 000000
2018-03-03 08:55:40,0.22,8.24,0.00,19.43,22.27,25.58,14.13,51.21,1014.57,2044.00,1465.57,1629.48,1833.22,600.03,602.14,52.86,0000 0000 0000 0000 000000
2018-03-03 09:00:42,0.21,8.25,0.00,19.44,22.27,25.58,14.09,51.20,1014.65,2044.00,1464.09,1628.36,1831.84,599.68,601.94,52.91,0000 0000 0000 0000 000000
2018-03-03 09:05:43,0.24,8.26,0.00,19.45,22.29,25.57,14.15,51.21,1014.66,2044.00,1462.55,1627.17,1830.49,600.28,602.35,52.96,0000 0000 0000 0000 000000
2018-03-03 09:10:44,0.20,8.27,0.00,19.47,22.29,25.59,14.08,51.21,1014.67,2044.00,1461.04,1625.97,1829.19,599.95,602.11,53.01,0000 0000 0000 0000 000000
2018-03-03 09:15:45,0.24,8.28,0.00,19.49,22.29,25.61,14.15,51.17,1014.66,2044.00,1459.57,1624.82,1827.80,600.08,602.14,53.06,0000 0000 0000 0000 000000
2018-03-03 09:20:46,0.21,8.29,0.00,19.50,22.30,25.57,14.12,51.16,1014.67,2044.00,1458.20,1623.71,1826.53,600.16,602.05,53.11,0000 0000 0000 0000 000000
2018-03-03 09:25:47,0.24,8.31,0.00,19.49,22.31,25.61,14.12,51.17,1014.67,2044.00,1456.63,1622.51,1825.11,599.95,601.90,53.16,0000 0000 0000 0000 000000
2018-03-03 09:30:49,0.22,8.32,0.00,19.49,22.32,25.61,14.12,51.01,1014.67,2044.00,1455.15,1621.32,1823.76,600.02,602.02,53.21,0000 0000 0000 0000 000000
2018-03-03 09:35:50,0.23,8.33,0.00,19.49,22.32,25.61,14.09,51.15,1014.69,2044.00,1453.62,1620.17,1822.45,599.74,601.69,53.26,0000 0000 0000 0000 000000
2018-03-03 09:40:51,0.20,8.34,0.00,19.51,22.33,25.62,14.07,51.16,1014.79,2043.99,1452.22,1619.00,1821.07,599.77,601.89,53.31,0000 0000 0000 0000 000000
2018-03-03 09:45:53,0.24,8.35,0.00,19.51,22.34,25.65,14.08,51.13,1014.96,2043.99,1450.76,1617.87,1819.72,599.94,602.09,53.36,0000 0000 0000 0000 000000
2018-03-03 09:50:54,0.22,8.36,0.00,19.51,22.34,25.63,14.12,51.12,1015.12,2043.99,1449.33,1616.74,1818.46,600.02,602.41,53.41,0000 0000 0000 0000 000000
2018-03-03 09:55:55,0.24,8.38,0.00,19.54,22.36,25.64,14.13,51.17,1015.14,2043.98,1447.77,1615.57,1817.07,600.10,602.34,53.46,0000 0000 0000 0000 000000
2018-03-03 10:00:57,0.22,8.39,0.00,19.55,22.37,25.64,14.16,51.17,1015.15,2043.99,1446.25,1614.43,1815.74,599.89,602.14,53.51,0000 0000 0000 0000 000000
2018-03-03 10:05:58,0.23,8.40,0.00,19.59,22.38,25.67,14.19,51.13,1015.15,2043.99,1444.74,1613.25,1814.43,600.15,602.28,53.56,0000 0000 0000 0000 000000
2018-03-03 10:10:59,0.19,8.41,0.00,19.61,22.39,25.68,14.17,51.23,1015.15,2043.96,1443.34,1612.12,1813.08,599.81,601.99,53.61,0000 0000 0000 0000 000000
2018-03-03 10:16:00,0.23,8.42,0.00,19.63,22.40,25.69,14.14,51.17,1015.16,2043.93,1441.88,1610.97,1811.74,600.16,602.33,53.66,0000 0000 0000 0000 000000
2018-03-03 10:21:02,0.21,8.43,0.00,19.64,22.42,25.71,14.09,51.09,1015.15,2043.88,1440.53,1609.81,1810.51,600.06,602.11,53.71,0000 0000 0000 0000 000000
2018-03-03 10:26:03,0.21,8.44,0.00,19.64,22.44,25.71,14.08,51.11,1015.15,2043.68,1438.92,1608.66,1809.14,600.03,602.05,53.77,0000 0000 0000 0000 000000
2018-03-03 10:31:04,0.19,8.45,0.00,19.66,22.44,25.74,14.17,51.45,1015.14,2043.48,1437.57,1607.61,1807.83,600.19,602.24,53.82,0000 0000 0000 0000 000000
2018-03-03 10:36:05,0.16,8.46,0.00,19.67,22.47,25.76,14.10,51.32,1015.14,2043.20,1436.29,1606.54,1806.59,600.05,602.12,53.87,0000 0000 0000 0000 000000
2018-03-03 10:41:07,0.20,8.47,0.00,19.67,22.49,25.77,14.15,51.31,1015.14,2043.09,1434.91,1605.48,1805.42,600.08,602.01,53.92,0000 0000 0000 0000 000000
2018-03-03 10:46:08,0.21,8.49,0.00,19.67,22.50,25.80,14.19,51.25,1015.14,2043.04,1433.54,1604.40,1804.18,600.15,602.06,53.97,0000 0000 0000 0000 000000
2018-03-03 10:51:09,0.21,8.50,0.00,19.69,22.52,25.83,14.10,51.29,1015.15,2043.02,1432.10,1603.27,1802.83,600.07,601.74,54.02,0000 0000 0000 0000 000000
2018-03-03 10:56:11,0.22,8.51,0.00,19.71,22.54,25.85,14.14,51.33,1015.15,2043.00,1430.70,1602.20,1801.56,600.07,601.96,54.07,0000 0000 0000 0000 000000
2018-03-03 11:01:12,0.19,8.52,0.00,19.73,22.56,25.85,14.17,51.36,1015.15,2043.00,1429.43,1601.08,1800.33,600.11,601.96,54.12,0000 0000 0000 0000 000000
2018-03-03 11:06:13,0.21,8.53,0.00,19.75,22.58,25.88,14.18,51.34,1015.30,2043.00,1428.01,1599.98,1799.03,600.25,602.01,54.17,0000 0000 0000 0000 000000
2018-03-03 11:11:14,0.21,8.54,0.00,19.77,22.59,25.90,14.16,51.32,1015.61,2043.00,1426.67,1599.00,1797.73,599.90,602.00,54.22,0000 0000 0000 0000 000000
2018-03-03 11:16:15,0.24,8.55,0.00,19.79,22.62,25.93,14.17,51.34,1015.63,2042.98,1425.21,1597.86,1796.37,600.03,601.98,54.27,0000 0000 0000 0000 000000
2018-03-03 11:21:16,0.26,8.56,0.00,19.80,22.63,25.93,14.10,51.38,1015.52,2042.97,1423.65,1596.67,1794.96,599.95,601.75,54.32,0000 0000 0000 0000 000000
2018-03-03 11:26:17,0.23,8.58,0.00,19.81,22.65,25.97,14.08,51.49,1015.38,2042.97,1422.18,1595.52,1793.63,599.52,601.32,54.37,0000 0000 0000 0000 000000
2018-03-03 11:31:18,0.22,8.59,0.00,19.81,22.67,25.99,14.25,51.47,1015.61,2042.93,1420.66,1594.38,1792.33,600.61,602.62,54.42,0000 0000 0000 0000 000000
2018-03-03 11:36:20,0.14,8.60,0.00,19.85,22.69,26.01,14.12,51.42,1015.64,2042.57,1419.27,1593.14,1791.02,599.87,601.80,54.47,0000 0000 0000 0000 000000
2018-03-03 11:41:21,0.21,8.61,0.00,19.87,22.72,26.03,14.15,51.51,1015.61,2042.25,1417.76,1591.99,1789.65,600.28,602.12,54.52,0000 0000 0000 0000 000000
2018-03-03 11:46:22,0.21,8.62,0.00,19.88,22.73,26.06,14.17,51.49,1015.61,2042.11,1416.42,1590.85,1788.38,600.09,601.97,54.57,0000 0000 0000 0000 000000
2018-03-03 11:51:24,0.24,8.63,0.00,19.89,22.76,26.09,14.11,51.81,1015.51,2042.04,1414.92,1589.69,1786.99,600.00,601.67,54.62,0000 0000 0000 0000 000000
2018-03-03 11:56:25,0.24,8.64,0.00,19.89,22.78,26.10,14.19,51.54,1015.63,2042.01,1413.50,1588.49,1785.58,600.07,601.88,54.68,0000 0000 0000 0000 000000
2018-03-03 12:01:26,0.19,8.65,0.00,19.90,22.81,26.13,14.20,51.48,1015.44,2042.00,1412.17,1587.45,1784.39,600.02,601.64,54.73,0000 0000 0000 0000 000000
2018-03-03 12:06:27,0.24,8.66,0.00,19.92,22.83,26.15,14.12,51.71,1015.19,2042.00,1410.71,1586.29,1783.00,600.13,601.59,54.78,0000 0000 0000 0000 000000
2018-03-03 12:11:28,0.22,8.67,0.00,19.93,22.85,26.18,14.14,51.88,1014.92,2042.00,1409.33,1585.07,1781.61,600.21,601.36,54.83,0000 0000 0000 0000 000000
2018-03-03 12:16:29,0.25,8.69,0.00,19.96,22.88,26.21,14.06,51.81,1015.15,2041.98,1407.78,1583.86,1780.29,599.53,600.86,54.88,0000 0000 0000 0000 000000
2018-03-03 12:21:31,0.23,8.70,0.00,19.98,22.89,26.23,14.14,51.60,1015.46,2041.96,1406.44,1582.75,1778.91,600.18,601.72,54.93,0000 0000 0000 0000 000000
2018-03-03 12:26:32,0.21,8.71,0.00,19.99,22.92,26.26,14.15,51.49,1015.63,2041.90,1405.11,1581.62,1777.67,600.16,601.79,54.98,0000 0000 0000 0000 000000
2018-03-03 12:31:33,0.22,8.72,0.00,19.99,22.94,26.27,14.11,51.42,1015.66,2041.78,1403.64,1580.52,1776.43,600.06,601.57,55.03,0000 0000 0000 0000 000000
2018-03-03 12:36:35,0.13,8.73,0.00,19.99,22.96,26.27,14.13,51.42,1015.80,2041.36,1402.30,1579.45,1775.13,599.67,601.32,55.08,0000 0000 0000 0000 000000
2018-03-03 12:41:36,0.21,8.74,0.00,20.02,22.98,26.29,14.10,51.37,1016.00,2041.12,1400.88,1578.32,1773.79,599.78,601.50,55.13,0000 0000 0000 0000 000000
2018-03-03 12:46:37,0.22,8.75,0.00,20.04,22.99,26.31,14.07,51.48,1016.12,2041.03,1399.55,1577.16,1772.51,599.81,601.57,55.18,0000 0000 0000 0000 000000
2018-03-03 12:51:39,0.19,8.76,0.00,20.03,23.02,26.36,14.16,51.50,1016.30,2041.02,1398.16,1576.11,1771.31,600.07,601.94,55.23,0000 0000 0000 0000 000000
2018-03-03 12:56:40,0.23,8.77,0.00,20.05,23.04,26.36,14.14,51.52,1016.54,2041.00,1396.78,1575.01,1770.00,599.73,601.64,55.28,0000 0000 0000 0000 000000